Weather in Privetnoe

Russia / Republic of Crimea     45°06′51″N   35°03′31″E
temp.,
°C
wind,
m/s
gust,
m/s
humid.,
%
clouds,
%
prec.,
mm/h
press.,
hPa
HPBL,
m
28 february, sun
sun2800:00+4nnw4794100 1.6 1018450
03:00+3nnw5993100 2.5 1019612
06:00+3nnw71084100 0.1 1019824
09:00+2nnw7109392 0.3 1020718
12:00+2nw599493 0.4 1021625
15:00+3nw588095 0.9 1021847
18:00+2nw699295 0.5 1022667
21:00+1nw489287 0.6 1023509
1 march, mon
mon100:00+1nw369478 0.2 1024450
03:000wnw259478 0.3 1024314
06:00−1wnw128898 0.0 102532
09:00+1nnw228591 0.0 1026217
12:00+2nnw128886 0.2 1027330
15:00+1nnw119294 0.9 1027206
18:00+1n1295100 0.4 1028182
21:000n1196100 0.6 1029178
2 march, tue
tue200:00−1nw229448 0.0 103039
03:00−1nw249145 0.0 1030109
06:00−1nw238310 0.0 103091
09:00+1nw257210 0.0 1030494
12:00+4wnw45570 0.0 1030955
15:00+5w46600 0.0 1028990
18:00+2w367527 0.0 1026452
21:000w278363 0.0 1026213
3 march, wed
wed300:00+1w5148534 0.0 1025457
03:00+3w5118546 0.0 1024464
06:00+2wnw4109567 0.0 1024319
09:00+3wnw388766 0.0 1025440
12:00+5nw687458 0.0 1025910
15:00+6nw686977 0.1 10251300
18:00+5nnw4869100 0.1 1026777
21:00+4n257498 0.1 1027240
4 march, thu
thu400:00+2nw117847 0.0 102822
03:00+1wnw117324 0.0 102822
06:00+1wsw11739 0.0 102722
09:00+3ssw236824 0.0 1027236
12:00+6ssw456125 0.0 1027960
15:00+6ssw466930 0.0 1025890
18:00+5s368432 0.1 1024445
21:00+3ssw349317 0.1 1023112